{"data":{"norad_id":69097,"epoch":"2026-09-20T04:46:50.892096Z","epoch_age_seconds":49267,"freshness":"FRESH","line1":"1 69097U 26106A   26263.19920014  .00003646  00000+0  21531-3 0  9994","line2":"2 69097  97.5553 343.6336 0013648 191.6043 168.4875 15.12072165 19336","mean_motion":15.12072165,"eccentricity":0.0013648,"inclination_deg":97.5553,"raan_deg":343.6336,"arg_perigee_deg":191.6043,"mean_anomaly_deg":168.4875,"bstar":0.00021531,"rev_number":1933,"period_min":95.233549914597,"perigee_km":520.45349241106,"apogee_km":539.30961986189,"semimajor_km":6908.0185561365,"source":"CELESTRAK","updated_at":"2026-09-20T09:00:24.675164Z"}}